Dewpoint
22 21 22 20 19 18 19 33 31 32 45 40 42 42 40 42 40 41 48 45 46 49 51 57 58 55 55 56 58 60 62 64 65 65 64 63 64 65 65 62 61 63 63 63 64 64 64 65 66 67 69 70 71 71 71 72 73 73 73 74 73 73 74
22 23 21 20 19 23 25 25 30 36 36 37 38 31 40 38 34 39 44 39 43 42 39 57 57 56 56 57 58 60 62 63 64 64 65 66 66 66 67 65 63 63 63 64 64 64 65 65 65 67 70 70 71 71 71 72 72 73 72 72 72 72 73
23 25 20 19 21 25 18 17 38 29 34 31 37 38 34 35 33 35 41 44 44 45 43 53 56 56 56 58 59 60 61 62 62 64 66 66 67 67 67 66 64 63 63 63 64 65 66 67 67 68 69 70 70 71 71 72 72 71 71 70 71 72 72
22 23 21 21 18 23 24 29 31 26 30 34 34 30 38 33 34 34 37 43 41 48 46 51 56 58 58 58 59 59 61 61 62 63 66 66 66 67 69 69 67 65 63 64 64 65 66 67 67 67 68 67 67 69 70 71 72 72 71 71 72 72 71
22 22 23 20 20 20 20 23 26 23 27 28 32 37 37 32 38 34 32 36 40 49 53 58 58 59 59 59 59 60 61 61 62 63 65 66 66 66 66 68 69 69 69 67 65 66 66 66 67 67 67 67 68 68 69 71 71 70 70 70 72 72 71
20 21 22 22 21 21 20 20 24 21 25 28 25 29 39 41 35 36 34 31 44 48 55 56 57 59 60 60 60 61 61 61 62 63 63 66 65 66 67 68 68 68 69 70 70 66 65 65 67 67 66 68 69 68 68 69 68 70 71 71 73 73 73
20 22 26 29 26 23 22 20 20 22 23 28 23 25 35 41 43 42 43 35 45 53 55 57 58 60 61 61 61 61 62 62 63 63 63 65 66 67 69 69 70 71 72 72 70 68 67 66 68 68 68 68 69 70 70 70 70 72 72 73 73 74 74
23 22 23 23 22 18 18 19 20 21 21 24 21 23 39 34 43 39 39 35 47 54 58 58 59 61 61 62 62 62 62 63 63 63 64 65 66 68 69 69 71 71 71 72 71 70 70 70 69 68 69 70 71 72 72 72 71 73 74 74 74 74 74
21 19 22 19 25 25 24 21 26 26 23 28 36 44 47 37 42 41 33 29 44 54 57 58 58 59 60 61 61 62 62 62 63 63 64 65 66 66 67 68 69 70 70 70 70 70 70 70 69 70 71 72 72 72 72 71 72 73 73 75 75 74 74
18 20 19 22 26 27 28 30 32 31 36 40 37 33 43 34 47 47 38 37 51 54 57 57 58 59 60 60 60 61 61 62 62 62 64 65 66 66 67 67 67 68 68 68 69 70 70 71 70 72 72 72 71 72 72 73 72 73 73 74 74 74 74
28 27 31 28 33 31 29 32 37 37 33 35 41 46 41 29 47 44 46 46 51 52 54 56 57 58 58 58 59 59 59 60 61 62 63 63 64 64 64 65 65 66 67 68 69 69 70 70 71 71 72 72 72 72 73 73 73 74 74 74 73 72 72
28 27 29 28 35 34 35 37 38 41 43 39 41 34 29 51 44 40 51 52 50 51 53 55 57 57 57 58 58 58 59 59 60 60 61 62 62 62 63 64 65 66 67 67 68 68 69 70 71 70 70 71 71 72 73 73 73 73 72 72 72 73 73
28 27 26 30 34 34 37 39 40 40 44 42 37 43 43 48 36 32 50 53 51 52 53 55 57 57 57 57 58 58 58 59 60 61 61 61 61 62 63 64 65 65 66 64 65 66 67 69 70 70 70 70 71 71 72 72 72 72 72 72 72 72 73
27 29 27 28 33 33 37 39 41 42 43 46 47 46 47 47 50 50 49 54 53 53 53 55 57 58 58 58 58 58 58 59 60 60 60 60 60 61 61 62 62 63 63 63 64 65 66 67 67 68 69 70 70 70 70 71 72 72 73 72 72 72 71
28 29 31 29 31 32 33 35 39 41 44 44 46 47 49 50 51 49 51 53 52 54 55 56 57 58 57 56 57 58 58 59 59 59 59 59 59 59 60 61 60 62 63 63 64 65 66 66 67 68 68 69 69 70 70 70 71 71 71 70 70 70 70
29 28 30 29 32 32 30 31 34 39 43 44 46 48 49 49 50 52 51 51 51 55 57 57 56 56 56 56 56 56 58 58 59 59 58 57 58 58 58 59 61 62 62 63 63 64 64 64 65 66 67 67 68 68 69 70 70 71 71 70 70 70 70
33 29 32 31 33 30 28 30 29 36 38 47 46 48 49 49 50 49 48 49 52 55 56 56 56 55 55 55 56 55 56 58 58 58 58 58 58 57 58 59 59 60 60 61 61 62 62 63 63 64 64 65 65 66 67 68 69 70 70 70 70 70 71
38 31 35 36 32 28 30 30 32 37 32 42 47 47 48 49 50 49 51 51 54 55 56 55 55 55 54 54 54 55 56 55 55 56 56 56 57 57 57 57 57 58 60 61 61 60 60 61 61 62 63 63 62 62 61 62 64 64 65 66 66 67 68
38 41 36 28 28 29 34 33 34 35 32 30 47 48 48 49 51 52 52 52 54 55 56 55 55 55 53 52 52 51 52 55 54 54 53 54 55 56 56 56 55 59 60 60 60 60 59 59 57 57 57 57 57 57 58 59 60 62 62 62 63 62 63
35 40 37 27 28 36 36 34 38 39 32 30 43 46 47 49 50 51 51 53 54 55 54 55 55 53 50 49 50 50 50 52 53 53 52 53 53 55 55 55 57 58 57 59 59 59 58 57 56 55 55 55 55 55 56 57 58 59 60 61 61 61 60
31 33 35 31 39 34 35 36 37 36 36 34 36 41 44 49 49 50 52 53 54 53 53 52 50 50 50 49 48 47 48 49 49 50 50 51 52 52 53 53 55 57 57 57 56 57 56 56 56 56 57 55 54 54 56 55 58 58 57 58 59 60 60
36 30 28 29 28 28 32 36 38 41 42 39 35 38 43 50 49 49 53 53 53 52 51 51 51 51 51 49 49 47 47 48 47 48 48 49 51 51 52 54 55 56 56 56 55 54 54 55 56 56 57 57 57 57 56 57 56 57 56 56 57 58 59
30 32 28 28 27 33 37 38 39 40 40 41 38 40 34 47 50 49 51 53 52 52 51 50 52 52 51 50 50 47 47 46 46 46 47 47 49 51 52 53 53 55 56 55 54 54 54 54 56 56 55 56 56 55 56 57 57 57 58 57 56 56 57
30 30 28 27 31 34 38 40 40 39 41 39 39 26 26 44 48 48 50 52 52 52 52 52 53 52 50 50 49 47 46 48 49 50 48 49 50 50 51 53 55 57 58 56 54 53 53 54 53 54 54 54 55 55 54 52 53 54 56 59 58 56 56
25 27 26 31 34 36 40 40 41 41 45 37 32 28 34 42 47 49 50 51 53 53 52 52 53 55 58 57 55 49 54 54 53 54 53 52 50 50 51 54 57 55 55 53 53 52 54 54 53 54 54 54 54 56 55 54 54 54 56 57 58 59 57
22 22 21 21 25 34 39 42 45 47 38 29 30 39 45 45 46 51 49 49 50 51 52 53 52 54 56 55 50 51 53 53 50 50 48 49 51 52 55 56 55 53 53 54 53 52 54 53 53 53 54 55 55 55 53 53 53 54 56 56 57 56 56
28 27 22 21 23 36 40 44 43 45 36 37 41 44 46 46 44 50 50 50 50 50 50 49 51 52 52 53 50 50 50 50 49 50 50 52 51 52 53 53 53 52 52 51 51 51 50 51 51 51 53 55 55 54 54 54 54 55 55 55 55 55 56
24 21 20 22 35 40 44 44 38 43 44 45 47 45 43 47 45 48 51 51 51 50 50 48 49 50 51 49 48 48 48 48 51 51 52 52 52 51 50 50 51 51 52 52 51 52 52 54 54 54 55 55 55 54 55 56 54 54 54 55 55 55 55
33 30 33 38 42 43 44 45 45 45 46 46 47 47 44 45 46 48 50 52 52 52 50 49 49 49 49 46 46 46 47 50 48 50 51 51 51 50 51 50 52 51 51 51 50 50 51 53 54 56 55 54 54 54 56 57 56 54 53 53 53 53 53
40 40 41 42 43 44 45 45 47 46 46 45 46 45 44 46 46 47 52 53 52 52 51 49 49 48 47 45 43 46 47 48 50 52 51 52 53 52 51 51 52 51 50 49 49 49 50 51 52 54 53 53 54 55 56 56 55 56 55 54 54 54 54
34 32 41 44 44 45 46 46 46 48 48 46 46 47 47 47 47 51 53 53 54 52 52 51 50 48 47 47 46 47 48 50 51 50 51 52 52 51 51 53 52 51 50 49 49 49 49 49 48 49 52 53 55 56 55 53 54 55 54 54 54 54 54
34 37 41 43 44 46 46 46 45 44 45 46 47 47 46 48 49 51 52 52 53 52 50 51 50 48 48 49 50 50 51 51 51 51 52 52 52 53 53 53 54 54 53 52 51 50 51 51 51 50 51 51 53 53 52 51 51 53 53 51 50 51 50
40 41 42 42 44 43 44 45 46 47 46 47 48 47 46 44 46 48 49 49 51 51 51 51 50 48 48 48 49 48 51 52 52 53 53 53 53 53 52 52 53 53 53 51 51 49 49 50 51 51 52 52 52 53 53 53 53 52 51 51 51 48 48
36 35 39 44 37 37 41 43 45 47 48 49 49 49 46 45 45 47 47 48 49 50 50 51 50 50 50 50 50 50 50 51 52 53 53 53 53 53 53 54 53 54 54 53 52 51 51 52 51 51 51 51 51 48 49 50 51 52 51 50 49 49 49
33 39 45 48 46 46 45 45 45 47 49 49 48 48 48 48 46 47 47 47 48 49 50 49 49 51 50 50 50 51 51 51 52 53 53 52 52 52 52 51 52 54 53 53 53 52 51 52 50 51 52 51 51 49 51 50 50 51 51 49 48 48 50
42 45 47 48 46 42 44 46 48 49 50 48 47 49 50 50 47 47 48 46 47 48 50 49 49 49 51 50 48 49 51 51 52 52 52 52 51 51 51 52 53 53 52 52 51 51 51 51 49 50 47 50 52 49 52 51 50 51 50 49 48 47 48
41 47 48 48 48 47 48 49 49 50 52 51 49 49 48 49 49 50 47 48 49 48 49 50 49 49 50 50 49 50 51 50 51 52 53 52 50 49 48 49 53 52 52 52 53 52 52 52 51 49 48 50 50 48 51 50 50 50 50 49 47 47 49